Regional Weather Roundup
Issued by NWS Northern Indiana

Home | Current Version | Previous Version | Text Only | Print | Product List | Glossary Off
Versions: 1 2 3 4 5 6 7 8 9 10 11 12 13 14 15 16 17 18 19 20 21 22 23 24 25 26 27 28 29 30 31 32 33 34 35 36 37 38 39 40 41 42 43 44 45 46 47 48 49 50

000
ASUS43 KIWX 011200
RWRIWX

KIWX WEATHER ROUNDUP
NATIONAL WEATHER SERVICE NORTHERN INDIANA
700 AM EST SUN MAR 01 2015

NOTE: "FAIR" INDICATES FEW OR NO CLOUDS BELOW 12,000 FEET WITH NO
SIGNIFICANT WEATHER AND/OR OBSTRUCTIONS TO VISIBILITY.

* THESE STATIONS ARE NOT UNDER NWS QUALITY CONTROL. THEY ALSO MAY NOT
  REPORT WEATHER SUCH AS PRECIPITATION OR FOG.

INZ001>027-011300-
NORTHERN INDIANA

CITY           SKY/WX    TMP DP  RH WIND       PRES   REMARKS
GARY*          CLOUDY    19  14  79 CALM      30.40S FOG
SOUTH BEND     MOCLDY    17  12  80 CALM      30.39S
6HR MIN TEMP:  17; 6HR MAX TEMP:  18; 6HR PCP: TRACE;

GOSHEN         CLOUDY    17  12  80 E3        30.38R HAZE
6HR MIN TEMP:  16; 6HR MAX TEMP:  17; 6HR PCP: TRACE;

MONTICELLO*    LGT SNOW  19  17  93 CALM      30.38S
6HR MIN TEMP:  19; 6HR MAX TEMP:  19; 6HR PCP:  0.07;

ANGOLA*        PTCLDY    14  12  92 CALM      30.37S
FORT WAYNE     LGT SNOW  17  14  88 E5        30.39S FOG     WCI  10
6HR MIN TEMP:  17; 6HR MAX TEMP:  17; 6HR PCP:  0.18;

PERU/GRISSOM   LGT SNOW  19  18  93 E3        30.36S FOG

$$
INZ028>050-011300-
CENTRAL INDIANA

CITY           SKY/WX    TMP DP  RH WIND       PRES   REMARKS
LAFAYETTE      LGT SNOW  20  18  92 CALM      30.39R FOG
6HR MIN TEMP:  20; 6HR MAX TEMP:  20; 6HR PCP:  0.11;

KOKOMO*        CLOUDY    19  18  93 CALM      30.38S
6HR MIN TEMP:  18; 6HR MAX TEMP:  19; 6HR PCP:  0.03;

MUNCIE*        LGT SNOW  24  22  91 S3        30.36S FOG
6HR MIN TEMP:  21; 6HR MAX TEMP:  24; 6HR PCP:  0.25;

INDIANAPOLIS   LGT SNOW  24  22  91 CALM      30.36S VSB 3/4
6HR MIN TEMP:  22; 6HR MAX TEMP:  24; 6HR PCP:  0.29;


$$
MIZ043>046-050>051-056>058-064>065-071>073-077>080-011300-
SOUTHWEST LOWER MICHIGAN

CITY           SKY/WX    TMP DP  RH WIND       PRES   REMARKS
BATTLE CREEK   MOCLDY    10   6  84 CALM      30.38F FOG
6HR MIN TEMP:   9; 6HR MAX TEMP:  15; 6HR PCP: TRACE;

BENTON HARBOR  CLOUDY    13  12  96 SE6       30.39F WCI   4
6HR MIN TEMP:  10; 6HR MAX TEMP:  16; 6HR PCP: TRACE;

COLDWATER*     CLOUDY    15  11  85 CALM      30.37S
6HR MIN TEMP:  14; 6HR MAX TEMP:  15;

HILLSDALE*     CLOUDY    15  12  88 CALM      30.35S
6HR MIN TEMP:  14; 6HR MAX TEMP:  15;

HOLLAND        LGT SNOW  14  10  84 S5        30.39F FOG     WCI   6
6HR MIN TEMP:   6; 6HR MAX TEMP:  17; 6HR PCP: TRACE;

GRAND RAPIDS   LGT SNOW   8   5  87 SE5       30.37F FOG     WCI   0
6HR MIN TEMP:   6; 6HR MAX TEMP:  15; 6HR PCP: TRACE;

KALAMAZOO      MOCLDY    10   6  84 CALM      30.38F FOG
6HR MIN TEMP:   9; 6HR MAX TEMP:  15;

STURGIS*       CLOUDY    14  12  92 CALM      30.37S
THREE RIVERS*  CLOUDY    13  10  88 CALM      30.39S
6HR MIN TEMP:  12; 6HR MAX TEMP:  15;


$$
OHZ001>008-015>018-024>025-011300-
NORTHWEST OHIO

CITY           SKY/WX    TMP DP  RH WIND       PRES   REMARKS
DEFIANCE       LGT SNOW  18  14  84 CALM      30.40F FOG
6HR MIN TEMP:  16; 6HR MAX TEMP:  18; 6HR PCP:  0.09;

FINDLAY        LGT SNOW  21  18  88 NE3       30.37F FOG
6HR MIN TEMP:  18; 6HR MAX TEMP:  21; 6HR PCP:  0.13;

TOLEDO EXPRESS LGT SNOW  17  14  88 CALM      30.40F FOG
6HR MIN TEMP:  14; 6HR MAX TEMP:  17; 6HR PCP:  0.13;

TOLEDO METCALF LGT SNOW  18  14  84 CALM      30.41F FOG
6HR MIN TEMP:  16; 6HR MAX TEMP:  18; 6HR PCP:  0.10;

LIMA           LGT SNOW  23  19  85 CALM      30.36S VSB 1
6HR MIN TEMP:  20; 6HR MAX TEMP:  23; 6HR PCP:  0.19;


$$
AND FOR LAKE MICHIGAN COASTAL AND OPEN LAKE BUOY OBSERVATIONS

STATION/POSITION TEMP    WIND        PRES    VSBY  WAVE
                 AIR SEA DIR/SP/G                  HT/PER
                 (F)     (DEG/KT/KT) (MB)    (MI)  (FT/S)
CALUMET HARBOR    18     160/  1/  2 1027.8R
MICHIGAN CITY     16      40/  4/  5   N/A
SAINT JOSEPH      15      70/  1/  2 1030.1S

$$
&&


USA.gov is the U.S. government's official web portal to all federal, state and local government web resources and services.